TimeEDT,TemperatureF,Dew PointF,Humidity,Sea Level PressureIn,VisibilityMPH,Wind Direction,Wind SpeedMPH,Gust SpeedMPH,PrecipitationIn,Events,Conditions,WindDirDegrees,DateUTC
12:56 AM,72.0,69.1,91,29.94,10.0,SSW,6.9,-,N/A,,Scattered Clouds,200,2013-06-04 04:56:00
1:56 AM,72.0,70.0,93,29.94,10.0,SSW,5.8,-,N/A,,Scattered Clouds,200,2013-06-04 05:56:00
2:33 AM,73.4,71.6,94,29.93,7.0,NNW,3.5,-,N/A,,Mostly Cloudy,340,2013-06-04 06:33:00
2:56 AM,73.0,71.1,93,29.93,7.0,Calm,Calm,-,N/A,,Mostly Cloudy,0,2013-06-04 06:56:00
3:11 AM,73.4,71.6,94,29.93,8.0,Calm,Calm,-,N/A,,Mostly Cloudy,0,2013-06-04 07:11:00
3:56 AM,73.0,71.1,93,29.93,7.0,Calm,Calm,-,N/A,,Mostly Cloudy,0,2013-06-04 07:56:00
4:15 AM,71.6,69.8,94,29.92,2.0,Calm,Calm,-,N/A,,Mostly Cloudy,0,2013-06-04 08:15:00
4:56 AM,72.0,70.0,93,29.93,2.0,Calm,Calm,-,N/A,,Mostly Cloudy,0,2013-06-04 08:56:00
5:36 AM,71.6,69.8,94,29.93,2.0,Calm,Calm,-,N/A,,Mostly Cloudy,0,2013-06-04 09:36:00
5:56 AM,71.1,69.1,93,29.94,2.0,North,5.8,-,N/A,,Mostly Cloudy,360,2013-06-04 09:56:00
6:10 AM,71.6,69.8,94,29.94,3.0,NNE,3.5,-,N/A,,Mostly Cloudy,30,2013-06-04 10:10:00
6:56 AM,73.0,71.1,93,29.97,7.0,Calm,Calm,-,N/A,,Mostly Cloudy,0,2013-06-04 10:56:00
7:06 AM,73.4,71.6,94,29.97,1.0,NW,3.5,-,N/A,,Overcast,320,2013-06-04 11:06:00
7:11 AM,73.4,71.6,94,29.97,0.2,NW,4.6,-,N/A,Fog,Fog,310,2013-06-04 11:11:00
7:54 AM,73.4,73.4,100,29.98,0.8,NW,3.5,-,N/A,,Mostly Cloudy,320,2013-06-04 11:54:00
7:56 AM,73.9,73.0,97,29.98,1.0,WNW,3.5,-,N/A,,Mostly Cloudy,300,2013-06-04 11:56:00
8:01 AM,73.4,73.4,100,29.98,3.0,NW,4.6,-,N/A,,Mostly Cloudy,310,2013-06-04 12:01:00
8:34 AM,75.2,73.4,94,29.98,10.0,WNW,5.8,-,N/A,,Partly Cloudy,300,2013-06-04 12:34:00
8:56 AM,80.1,73.0,79,29.98,10.0,NW,4.6,-,N/A,,Partly Cloudy,320,2013-06-04 12:56:00
9:56 AM,84.9,73.0,67,29.99,10.0,North,5.8,-,N/A,,Scattered Clouds,10,2013-06-04 13:56:00
10:56 AM,87.1,73.0,63,30.00,10.0,NE,6.9,-,N/A,,Mostly Cloudy,40,2013-06-04 14:56:00
11:56 AM,84.0,73.9,72,30.00,10.0,ENE,6.9,-,N/A,,Mostly Cloudy,60,2013-06-04 15:56:00
12:56 PM,86.0,72.0,63,30.00,10.0,ENE,6.9,-,0.00,Thunderstorm,Thunderstorm,70,2013-06-04 16:56:00
1:14 PM,86.0,75.2,70,30.00,10.0,SE,10.4,-,N/A,,Mostly Cloudy,130,2013-06-04 17:14:00
1:56 PM,84.0,75.0,74,30.00,10.0,SSE,12.7,-,N/A,,Mostly Cloudy,160,2013-06-04 17:56:00
2:56 PM,82.0,73.0,74,29.97,10.0,SSE,11.5,-,N/A,,Mostly Cloudy,160,2013-06-04 18:56:00
3:56 PM,81.0,72.0,74,29.98,10.0,ESE,8.1,-,N/A,,Mostly Cloudy,120,2013-06-04 19:56:00
4:56 PM,81.0,72.0,74,29.98,10.0,SE,11.5,-,N/A,,Mostly Cloudy,140,2013-06-04 20:56:00
5:42 PM,80.6,71.6,74,29.99,10.0,ESE,9.2,-,N/A,,Mostly Cloudy,120,2013-06-04 21:42:00
5:56 PM,80.1,72.0,76,29.99,10.0,East,9.2,-,N/A,,Mostly Cloudy,80,2013-06-04 21:56:00
6:36 PM,78.8,71.6,78,30.01,10.0,East,4.6,-,N/A,Thunderstorm,Thunderstorm,80,2013-06-04 22:36:00
6:56 PM,79.0,73.0,82,29.99,10.0,ESE,6.9,-,N/A,Thunderstorm,Thunderstorm,110,2013-06-04 22:56:00
7:15 PM,78.8,73.4,83,30.00,10.0,SE,10.4,-,0.00,Rain,Light Rain,130,2013-06-04 23:15:00
7:56 PM,79.0,73.9,84,30.02,10.0,ESE,5.8,-,0.00,,Mostly Cloudy,120,2013-06-04 23:56:00
8:56 PM,78.1,73.9,87,30.02,10.0,East,3.5,-,N/A,,Mostly Cloudy,80,2013-06-05 00:56:00
9:56 PM,78.1,73.9,87,30.03,10.0,East,3.5,-,N/A,,Mostly Cloudy,100,2013-06-05 01:56:00
10:56 PM,78.1,73.9,87,30.05,9.0,SE,3.5,-,N/A,,Mostly Cloudy,130,2013-06-05 02:56:00
11:56 PM,75.9,70.0,82,30.03,10.0,ENE,3.5,-,N/A,,Scattered Clouds,60,2013-06-05 03:56:00